Time_in_sec,Mx,My,Mz
1314271466.30047631,-0.41365278,-0.19263992,-0.85348505
1314271466.34949064,-0.41283303,-0.18936390,-0.85518497
1314271466.40144897,-0.41477841,-0.19221874,-0.85646707
1314271466.44844031,-0.41420972,-0.19160269,-0.85590929
1314271466.49800014,-0.41379520,-0.19276251,-0.85362470
1314271466.54848838,-0.41451034,-0.19084108,-0.85632950
1314271466.60075021,-0.41295871,-0.19061896,-0.85518289
1314271466.64855099,-0.41541916,-0.19284533,-0.85596889
1314271466.70048571,-0.41493839,-0.19223684,-0.85462117
1314271466.74953151,-0.41251975,-0.19276288,-0.85487700
1314271466.80046988,-0.41462594,-0.19034143,-0.85594231
1314271466.84960437,-0.41234100,-0.18996359,-0.85833234
1314271466.89785695,-0.41510156,-0.19172810,-0.85503167
1314271466.94859171,-0.41448760,-0.19172373,-0.85605669
1314271467.00046873,-0.41470510,-0.19248369,-0.85526848
1314271467.05033517,-0.41465062,-0.19236864,-0.85433882
1314271467.10050106,-0.41517586,-0.19133748,-0.85623121
1314271467.14978695,-0.41430354,-0.19085628,-0.85512519
1314271467.20048165,-0.41254547,-0.19250701,-0.85527784
1314271467.24960780,-0.41388232,-0.19174208,-0.85496217
1314271467.30047035,-0.41637847,-0.19446352,-0.85640901
1314271467.34859848,-0.41406846,-0.19020079,-0.85789895
1314271467.40048099,-0.41207486,-0.19149582,-0.85631847
1314271467.44853330,-0.41574937,-0.19032143,-0.85666889
1314271467.50049233,-0.41463369,-0.19149356,-0.85394686
1314271467.54951048,-0.41562864,-0.19260304,-0.85492271
1314271467.60047460,-0.41279081,-0.19060236,-0.85689580
1314271467.64847207,-0.41234192,-0.18883416,-0.85820824
1314271467.69759107,-0.41379040,-0.19123340,-0.85562313
1314271467.74961042,-0.41541615,-0.19221854,-0.85584092
1314271467.80088115,-0.41430590,-0.19246262,-0.85763073
1314271467.84769249,-0.41352436,-0.19060820,-0.85561264
1314271467.89749312,-0.41329613,-0.19223429,-0.85651505
1314271467.94948602,-0.41388255,-0.19159220,-0.85721564
1314271468.00055790,-0.41443434,-0.19133314,-0.85738146
1314271468.04958153,-0.41503546,-0.19196734,-0.85621858
1314271468.09743690,-0.41421667,-0.19172685,-0.85604125
1314271468.14846945,-0.41315857,-0.19047962,-0.85625517
1314271468.20047736,-0.41328520,-0.19160903,-0.85625404
1314271468.25251031,-0.41320986,-0.19112153,-0.85492843
1314271468.29756045,-0.41443488,-0.19251101,-0.85300058
1314271468.35034323,-0.41348979,-0.19199502,-0.85520291
1314271468.40044332,-0.41384563,-0.19137266,-0.85430032
1314271468.44851279,-0.41095033,-0.18963392,-0.85534078
1314271468.49830103,-0.41443586,-0.19238535,-0.85300153
1314271468.54847145,-0.41333920,-0.19202381,-0.85267681
1314271468.59761310,-0.41359839,-0.19036745,-0.85455871
1314271468.65156507,-0.41251761,-0.19416785,-0.85274661
1314271468.70160890,-0.41452494,-0.19111358,-0.85434091
1314271468.75020051,-0.41398406,-0.19099413,-0.85431105
1314271468.80048323,-0.41340858,-0.19226150,-0.85387141
1314271468.84961796,-0.41256028,-0.19162588,-0.85541773
1314271468.89816856,-0.41479105,-0.19274256,-0.85447651
1314271468.94859099,-0.41392070,-0.19201003,-0.85337245
1314271469.00159931,-0.41416591,-0.19226278,-0.85298705
1314271469.05038643,-0.41488388,-0.19212179,-0.85369146
1314271469.10151911,-0.41224563,-0.19013165,-0.85448343
1314271469.14949131,-0.41293958,-0.19014508,-0.85253549
1314271469.20046878,-0.41530314,-0.19148731,-0.85385251
1314271469.24960065,-0.41243356,-0.18949270,-0.85529381
1314271469.29802346,-0.41270441,-0.19164702,-0.85330588
1314271469.34847999,-0.41248494,-0.19113839,-0.85409212
1314271469.40126705,-0.41305447,-0.18962121,-0.85440075
1314271469.44848728,-0.41367853,-0.19238405,-0.85388589
1314271469.50050616,-0.41487506,-0.19325274,-0.85368258
1314271469.54949307,-0.41358057,-0.19062181,-0.85429078
1314271469.59247828,-0.41249102,-0.18923077,-0.85622644
1314271469.64858937,-0.41451785,-0.18898189,-0.85395885
1314271469.70337462,-0.41423914,-0.19099405,-0.85406059
1314271469.74960971,-0.41456157,-0.19047922,-0.85487771
1314271469.80102134,-0.41468918,-0.19148295,-0.85487753
1314271469.84993100,-0.41322964,-0.19061585,-0.85519832
1314271469.90150142,-0.41456851,-0.19060336,-0.85500968
1314271469.94984770,-0.41478103,-0.19098784,-0.85409147
1314271470.00178742,-0.41318414,-0.19137740,-0.85452765
1314271470.04860425,-0.41340002,-0.19008139,-0.85799426
1314271470.10144615,-0.41468045,-0.19045648,-0.85687196
1314271470.14860106,-0.41485441,-0.19172665,-0.85541511
1314271470.20159364,-0.41455764,-0.19098186,-0.85487372
1314271470.24848318,-0.41456383,-0.19424298,-0.85537988
1314271470.30162144,-0.41385174,-0.19363002,-0.85468143
1314271470.34966779,-0.41333660,-0.19009350,-0.85693067
1314271470.40168428,-0.41451442,-0.19234598,-0.85658354
1314271470.44963241,-0.41501871,-0.19309980,-0.85607672
1314271470.49760580,-0.41439283,-0.19259582,-0.85683978
1314271470.54960370,-0.41256347,-0.19109902,-0.85767412
1314271470.59762192,-0.41316551,-0.19060376,-0.85638714
1314271470.64962101,-0.41494551,-0.19120735,-0.85688150
1314271470.69762993,-0.41477540,-0.19159193,-0.85633904
1314271470.74953532,-0.41233075,-0.19252372,-0.85394061
1314271470.80045199,-0.41509095,-0.19195673,-0.85714924
1314271470.84860182,-0.41081235,-0.18870895,-0.85971200
1314271470.89747071,-0.41428009,-0.19171472,-0.85710484
1314271470.94847989,-0.41248912,-0.19048586,-0.85634953
1314271470.99760437,-0.41547385,-0.19180675,-0.85902703
1314271471.05251360,-0.41478324,-0.19058666,-0.85634691
1314271471.09759188,-0.41340008,-0.19108516,-0.85811937
1314271471.14960384,-0.41253471,-0.19072810,-0.85714525
1314271471.20045924,-0.41326568,-0.19196482,-0.85823768
1314271471.24850869,-0.41338220,-0.19033574,-0.85772640
1314271471.29832983,-0.41537407,-0.19230336,-0.85968012
1314271471.34951019,-0.41335776,-0.19131984,-0.85970509
1314271471.40223575,-0.41585648,-0.19180663,-0.85865134
1314271471.45247602,-0.41406053,-0.19020231,-0.85776603
1314271471.50180697,-0.41568539,-0.19231689,-0.85810786
1314271471.55035853,-0.41271880,-0.19159557,-0.85807675
1314271471.60084534,-0.41383821,-0.19107443,-0.85867435
1314271471.64959860,-0.41181907,-0.18831049,-0.86069971
1314271471.69819140,-0.41489723,-0.19119222,-0.85833627
1314271471.74846721,-0.41501096,-0.19194767,-0.85807216
1314271471.80462003,-0.41453332,-0.18980855,-0.85885578
1314271471.85249329,-0.41345859,-0.19170134,-0.85917807
1314271471.90161824,-0.41354945,-0.19133189,-0.85839099
1314271471.95023513,-0.41657346,-0.19179130,-0.85935473
1314271472.00116110,-0.41463715,-0.19081683,-0.85845673
1314271472.04858851,-0.41428801,-0.19171320,-0.85723782
1314271472.09804678,-0.41616100,-0.19054237,-0.85907549
1314271472.14960837,-0.41460145,-0.19032176,-0.85779589
1314271472.20160675,-0.41403389,-0.19158761,-0.85748923
1314271472.24856949,-0.41597617,-0.19281188,-0.85851818
1314271472.30112839,-0.41337335,-0.19146669,-0.85771751
1314271472.34948587,-0.41137096,-0.19073147,-0.85800642
1314271472.40056682,-0.41400522,-0.19222046,-0.85708547
1314271472.44860101,-0.41327843,-0.19033122,-0.85825050
1314271472.49803782,-0.41425827,-0.19146794,-0.85670799
1314271472.54859805,-0.41163468,-0.19075409,-0.85563642
1314271472.60050869,-0.41377658,-0.19198889,-0.85548425
1314271472.64992547,-0.41390029,-0.19349526,-0.85548013
1314271472.70085645,-0.41558331,-0.19221093,-0.85638046
1314271472.74951482,-0.41560683,-0.19235626,-0.85452580
1314271472.80046034,-0.41320488,-0.19074605,-0.85479844
1314271472.84844875,-0.41369358,-0.19135304,-0.85627919
1314271472.90579772,-0.41303286,-0.19238575,-0.85437906
1314271472.94845343,-0.41373891,-0.19174513,-0.85482144
1314271473.00044799,-0.41493446,-0.19273949,-0.85461718
1314271473.04848742,-0.41435403,-0.19047019,-0.85592586
1314271473.10045481,-0.41216382,-0.19238147,-0.85565454
1314271473.14952707,-0.41304660,-0.19062650,-0.85439289
1314271473.19247818,-0.41524979,-0.19009295,-0.85505223
1314271473.24945211,-0.41359636,-0.18961500,-0.85443163
1314271473.29763889,-0.41580564,-0.19133881,-0.85547215
1314271473.34848452,-0.41255516,-0.18924285,-0.85503757
1314271473.40060067,-0.41355786,-0.19150446,-0.85401797
1314271473.45021415,-0.41418871,-0.19238390,-0.85338497
1314271473.50059247,-0.41427183,-0.19086233,-0.85459340
1314271473.54957795,-0.41223875,-0.19101128,-0.85447651
1314271473.60044789,-0.41424331,-0.19034153,-0.85631800
1314271473.64862609,-0.41340876,-0.19110785,-0.85599983
1314271473.69752192,-0.41313002,-0.19312002,-0.85610151
1314271473.74951386,-0.41141105,-0.19089797,-0.85416526
1314271473.79760027,-0.41347885,-0.19136974,-0.85494196
1314271473.84951186,-0.41329607,-0.19123052,-0.85638994
1314271473.90061355,-0.41310111,-0.19074155,-0.85532254
1314271473.94955540,-0.41580662,-0.19121315,-0.85547310
1314271474.00065017,-0.41521353,-0.19158122,-0.85689402
1314271474.04951525,-0.41087541,-0.18784292,-0.85839707
1314271474.09850597,-0.41356236,-0.19170585,-0.85865396
1314271474.14851785,-0.41505924,-0.19196279,-0.85661739
1314271474.19753146,-0.41425231,-0.19121814,-0.85657698
1314271474.25249910,-0.41394171,-0.19122882,-0.85589677
1314271474.30045485,-0.41402596,-0.19158913,-0.85735631
1314271474.34949636,-0.41222039,-0.19008778,-0.85858953
1314271474.40152264,-0.41311222,-0.19021317,-0.85771191
1314271474.44951820,-0.41623020,-0.19193369,-0.85814172
1314271474.49793816,-0.41462040,-0.19194929,-0.85831493
1314271474.54961133,-0.41365412,-0.19020697,-0.85774285
1314271474.59789872,-0.41271970,-0.19046614,-0.85795271
1314271474.64845634,-0.41570622,-0.19268933,-0.85850376
1314271474.70045757,-0.41312325,-0.19184223,-0.85809797
1314271474.74945354,-0.41277605,-0.19248728,-0.85688102
1314271474.80139685,-0.41382742,-0.19245671,-0.85866350
1314271474.84852052,-0.41294163,-0.19042370,-0.86167538
1314271474.89829731,-0.41444927,-0.19245955,-0.85777146
1314271474.94960022,-0.41366032,-0.19346809,-0.85824901
1314271475.00163436,-0.41541043,-0.19181886,-0.85796338
1314271475.04848075,-0.41203058,-0.19198182,-0.85790223
1314271475.10165524,-0.41172010,-0.18983509,-0.85922539
1314271475.14953852,-0.41308782,-0.19119729,-0.85969061
1314271475.18848157,-0.41352463,-0.19045833,-0.85786611
1314271475.24858761,-0.41412184,-0.18843396,-0.85857755
1314271475.29809904,-0.41387489,-0.19144385,-0.85933614
1314271475.34859204,-0.41340733,-0.18789823,-0.86238307
1314271475.40053034,-0.41366932,-0.19118351,-0.86038631
1314271475.44997311,-0.41520387,-0.19168419,-0.85901254
1314271475.50065804,-0.41350517,-0.19181791,-0.85997474
1314271475.54947853,-0.41468111,-0.19216429,-0.86162907
1314271475.60063291,-0.41229793,-0.19017407,-0.86217058
1314271475.64847445,-0.41220400,-0.18891296,-0.86270452
1314271475.70196033,-0.41201228,-0.19206209,-0.86214030
1314271475.74848223,-0.41177672,-0.19170636,-0.86040717
1314271475.80164003,-0.41412428,-0.19104409,-0.86120814
1314271475.84850335,-0.41258180,-0.19054492,-0.86244893
1314271475.90074825,-0.41282192,-0.19257964,-0.85993022
1314271475.94948721,-0.41475809,-0.19154654,-0.86057806
1314271476.00121522,-0.41229099,-0.19004993,-0.86203861
1314271476.04859662,-0.41465929,-0.19191751,-0.86123216
1314271476.10198283,-0.41294971,-0.19242972,-0.86205846
1314271476.14960670,-0.41359431,-0.19154991,-0.86143923
1314271476.19354749,-0.41367829,-0.19206010,-0.86064529
1314271476.24967527,-0.41321519,-0.18918970,-0.85931528
1314271476.30152488,-0.41479567,-0.19078653,-0.86111581
1314271476.34950876,-0.41402149,-0.19091392,-0.86173326
1314271476.40052938,-0.41328171,-0.19080815,-0.86063200
1314271476.44962668,-0.41233057,-0.18903857,-0.86257827
1314271476.49779558,-0.41330621,-0.19082780,-0.85877836
1314271476.54969358,-0.41304424,-0.19170751,-0.85902190
1314271476.59760928,-0.41184399,-0.19018783,-0.86134964
1314271476.65087056,-0.41431189,-0.18955123,-0.85964000
1314271476.69760108,-0.41498116,-0.19069864,-0.85741729
1314271476.74951220,-0.41580909,-0.19066207,-0.85998201
1314271476.78952241,-0.41288909,-0.19005732,-0.86074769
1314271476.84953046,-0.41301063,-0.18880370,-0.86036640
1314271476.90052104,-0.41318160,-0.19045086,-0.85890657
1314271476.94861960,-0.41312245,-0.19081424,-0.86022538
1314271476.99761367,-0.41303951,-0.19118217,-0.86114538
1314271477.05011606,-0.41412035,-0.19154674,-0.86120421
1314271477.09753942,-0.41287553,-0.19066294,-0.86286229
1314271477.14948797,-0.41345289,-0.19130166,-0.86130053
1314271477.20048666,-0.41386420,-0.19066870,-0.86132866
1314271477.24964046,-0.41350055,-0.18913515,-0.86410159
1314271477.29839563,-0.41393259,-0.19103204,-0.86252224
1314271477.34948635,-0.41348648,-0.19004050,-0.86170924
1314271477.39752197,-0.41241071,-0.19105518,-0.86190546
1314271477.44876432,-0.41258088,-0.19167435,-0.86257303
1314271477.50155377,-0.41421357,-0.19278364,-0.86292273
1314271477.54854989,-0.41398808,-0.19102143,-0.86345291
1314271477.58962131,-0.41129941,-0.19042115,-0.86356926
1314271477.64850712,-0.41322640,-0.18966511,-0.86182970
1314271477.70042896,-0.41389695,-0.19154075,-0.86198652
1314271477.74944758,-0.41403759,-0.19076101,-0.86425263
1314271477.80048800,-0.41351721,-0.19016010,-0.86224008
1314271477.85247636,-0.41210514,-0.18828014,-0.86323351
1314271477.90048718,-0.41325516,-0.19003603,-0.86235857
1314271477.94848537,-0.41356662,-0.19205710,-0.86103642
1314271477.98969913,-0.41139892,-0.19007440,-0.86066270
1314271478.04845500,-0.41365358,-0.18902911,-0.86212373
1314271478.09812570,-0.41146919,-0.18918264,-0.86173326
1314271478.14850426,-0.41226304,-0.19070698,-0.85938233
1314271478.20140266,-0.41399288,-0.19255054,-0.86145449
1314271478.25162029,-0.41297618,-0.19219807,-0.86020684
1314271478.30048800,-0.41262308,-0.18943211,-0.86073714
1314271478.34947181,-0.41203788,-0.18979868,-0.86229104
1314271478.40045619,-0.41297930,-0.19066744,-0.86233819
1314271478.44847131,-0.41193393,-0.19094782,-0.86068672
1314271478.50196862,-0.41448051,-0.19227941,-0.86280918
1314271478.54848814,-0.41256988,-0.19004531,-0.86218697
1314271478.60117674,-0.41171840,-0.18993653,-0.86147684
1314271478.64847755,-0.41582128,-0.19101182,-0.86249745
1314271478.70150566,-0.41280127,-0.19105355,-0.86166275
1314271478.74949932,-0.41282871,-0.19069624,-0.85981208
1314271478.80150533,-0.41359031,-0.19104879,-0.86131024
1314271478.84859681,-0.41207966,-0.18838613,-0.86508614
1314271478.89783812,-0.41419372,-0.19228555,-0.86252785
1314271478.94960880,-0.41529107,-0.19166751,-0.86047506
1314271479.00049472,-0.41504112,-0.19088942,-0.86298388
1314271479.04847741,-0.41288820,-0.19118676,-0.86087173
1314271479.10058141,-0.41456738,-0.19140884,-0.86189318
1314271479.14850640,-0.41438231,-0.19066703,-0.86096066
1314271479.19251728,-0.41277748,-0.19105810,-0.86126387
1314271479.24956226,-0.41522580,-0.18977354,-0.86141276
1314271479.29768920,-0.41366532,-0.19068237,-0.86025727
1314271479.34847760,-0.41296142,-0.18991803,-0.86194527
1314271479.40128279,-0.41193777,-0.18944140,-0.86056560
1314271479.45055795,-0.41377413,-0.19206612,-0.85998827
1314271479.49759960,-0.41371989,-0.19180121,-0.86131203
1314271479.54853082,-0.41214055,-0.19208626,-0.85976261
1314271479.60049701,-0.41281214,-0.19067505,-0.86179864
1314271479.64966035,-0.41156620,-0.18790936,-0.86320561
1314271479.69757175,-0.41474900,-0.19282737,-0.85831571
1314271479.74953032,-0.41405007,-0.19243848,-0.86013371
1314271479.80060792,-0.41416588,-0.19078518,-0.86187494
1314271479.85163283,-0.41343212,-0.19193299,-0.86102968
1314271479.89760780,-0.41217807,-0.19032247,-0.86017525
1314271479.94984818,-0.41281483,-0.19044794,-0.85954815
1314271479.98848748,-0.41227490,-0.19020283,-0.85951918
1314271480.04959059,-0.41445830,-0.19017495,-0.85990870
1314271480.09844398,-0.41279399,-0.19007550,-0.85915226
1314271480.14958549,-0.41418049,-0.19105770,-0.85988635
1314271480.19755268,-0.41128197,-0.18984582,-0.85867035
1314271480.24955010,-0.41462439,-0.19245042,-0.85844392
1314271480.30049133,-0.41294140,-0.19057357,-0.85942191
1314271480.34971666,-0.41381469,-0.19092911,-0.86052895
1314271480.40044713,-0.41410327,-0.19182530,-0.85868388
1314271480.44952679,-0.41389975,-0.18915622,-0.86173934
1314271480.49827552,-0.41298470,-0.19021322,-0.85783714
1314271480.54852009,-0.41360101,-0.19182393,-0.85931772
1314271480.60075903,-0.41344896,-0.19180430,-0.86129659
1314271480.64858007,-0.41501391,-0.19157068,-0.85807514
1314271480.69759488,-0.41335556,-0.19172104,-0.85744965
1314271480.74949384,-0.41409633,-0.19170116,-0.85855192
1314271480.78853345,-0.41275069,-0.19043586,-0.86073697
1314271480.84965467,-0.41257045,-0.18806197,-0.85968441
1314271480.89813900,-0.41453320,-0.19196597,-0.85685241
1314271480.94960690,-0.41369867,-0.18957108,-0.85841256
1314271481.00152278,-0.41477668,-0.19232018,-0.85871851
1314271481.05258417,-0.41335180,-0.19107004,-0.85957408
1314271481.10090542,-0.41401732,-0.19156644,-0.85947585
1314271481.14950657,-0.41286305,-0.18945929,-0.85796833
1314271481.20097637,-0.41407076,-0.19080338,-0.86027944
1314271481.24955487,-0.41103506,-0.18969449,-0.86130726
1314271481.30400681,-0.41137889,-0.19072995,-0.85813940
1314271481.34959960,-0.41571510,-0.19256215,-0.85863769
1314271481.40135217,-0.41333491,-0.19019496,-0.85918212
1314271481.44971919,-0.41527194,-0.19119363,-0.85782766
1314271481.50151563,-0.41337147,-0.19272178,-0.85784060
1314271481.54951048,-0.41379157,-0.18995410,-0.85775256
1314271481.60047626,-0.41128010,-0.19110091,-0.85879344
1314271481.64953685,-0.41341686,-0.18995269,-0.85826117
1314271481.69787574,-0.41503671,-0.19169180,-0.85847300
1314271481.74953651,-0.41220769,-0.19272515,-0.85870177
1314271481.80162573,-0.41307765,-0.19159999,-0.85730225
1314271481.85053658,-0.41434538,-0.19044749,-0.85804540
1314271481.88953948,-0.41353360,-0.19133493,-0.85812509
1314271481.94990754,-0.41345942,-0.18956813,-0.85892892
1314271482.00102329,-0.41385287,-0.18818575,-0.85856408
1314271482.04853773,-0.41200787,-0.18970329,-0.85950768
1314271482.09772420,-0.41340211,-0.19183761,-0.85824639
1314271482.14876890,-0.41315979,-0.19020408,-0.85850966
1314271482.20111656,-0.41452953,-0.19231874,-0.85910195
1314271482.24864268,-0.41329819,-0.19298674,-0.85664207
1314271482.30051160,-0.41353956,-0.19158474,-0.85825610
1314271482.34950233,-0.41352281,-0.19271719,-0.85811424
1314271482.38851070,-0.41268212,-0.19122615,-0.85741496
1314271482.44958615,-0.41377571,-0.18995713,-0.85748661
1314271482.49771619,-0.41440967,-0.19246714,-0.85710669
1314271482.54959393,-0.41144401,-0.19061637,-0.85695153
1314271482.59760308,-0.41546264,-0.19133134,-0.85651255
1314271482.64848280,-0.41269192,-0.18996954,-0.85742486
1314271482.70151663,-0.41383606,-0.19247940,-0.85654396
1314271482.74961829,-0.41283914,-0.19162126,-0.85556608
1314271482.80046892,-0.41277206,-0.19198614,-0.85675198
1314271482.84948468,-0.41261789,-0.19021030,-0.85847878
1314271482.89745402,-0.41331264,-0.19125170,-0.85440338
1314271482.94852543,-0.41384262,-0.19074588,-0.85417235
1314271482.99751449,-0.41250381,-0.19176215,-0.85448605
1314271483.05014205,-0.41348895,-0.19412823,-0.85545206
1314271483.09758496,-0.41292706,-0.19162880,-0.85477608
1314271483.14849854,-0.41448742,-0.19287738,-0.85392827
1314271483.18848372,-0.41503733,-0.19387344,-0.85421717
1314271483.24920678,-0.41264018,-0.19063115,-0.85436970
1314271483.29830647,-0.41444570,-0.19112873,-0.85301143
1314271483.35031748,-0.41323346,-0.19227062,-0.85319889
1314271483.38956308,-0.41319573,-0.19102311,-0.85241103
1314271483.44847274,-0.41300881,-0.18837520,-0.85347992
1314271483.49760532,-0.41413903,-0.19063677,-0.85233516
1314271483.55034757,-0.41368416,-0.19177996,-0.85163832
1314271483.60059881,-0.41323838,-0.19164233,-0.85320383
1314271483.64948583,-0.41205683,-0.18873885,-0.85567540
1314271483.69824672,-0.41372982,-0.19302596,-0.85255915
1314271483.74960113,-0.41427556,-0.19151333,-0.85246891
1314271483.80128837,-0.41288948,-0.19238882,-0.85423839
1314271483.84844518,-0.41424403,-0.19352694,-0.85218722
1314271483.88961530,-0.41329885,-0.19200718,-0.85426450
1314271483.95019674,-0.41210222,-0.19013472,-0.85434276
1314271484.00053716,-0.41338143,-0.19078535,-0.85096598
1314271484.04862094,-0.41468802,-0.19276226,-0.85274810
1314271484.10044003,-0.41338828,-0.19306692,-0.84909463
1314271484.14975238,-0.41458517,-0.19162831,-0.85314816
1314271484.20047116,-0.41321558,-0.19152121,-0.85280597
